Location: Bletchingley
(51.2333°N, 0.1000°W)
Time: 05:24:08
(UTC+00:00)

CRYOSAT 2 - Pass Details

Date: 18 September 2020
Orbit: 714 x 725 km, 92.0° (Epoch: 20 October)

Event Time Altitude Azimuth Distance (km) Brightness Sun altitude
Rises 20:49:41 0° 4° (N) 3,154 8.1 -24.5°
Reaches altitude 10° 20:51:59 10° 5° (N) 2,227 7.3 -24.8°
Maximum altitude 20:56:55 87° 94° (E) 731 4.2 -25.4°
Enters shadow 20:57:02 85° 145° (SE) 732 4.2 -25.4°
